CW1558 Weather Reports


time (UTC)temp
C
wind
direction
speed
KPH
gust
KPH
rain 1hr
cm
rain 24hr
cm
rain mn
cm
humidity
%
barometer
mb
20260503193056 26 348 0.0 3.2 0.00 0.00 0.00 44 1011.9
20260503191556 26 360 0.0 3.2 0.00 0.00 0.00 45 1012.1
20260503190051 26 217 0.0 4.8 0.00 0.00 0.00 50 1012.2
20260503184552 26 148 0.0 4.8 0.00 0.00 0.00 49 1012.3
20260503183057 25 150 0.0 0.0 0.00 0.00 0.00 51 1012.6
20260503181535 25 321 0.0 1.6 0.00 0.00 0.00 53 1012.7
20260503180036 24 321 0.0 1.6 0.00 0.00 0.00 53 1012.8
20260503174527 23 333 0.0 0.0 0.00 0.00 0.00 55 1012.9
20260503173025 23 333 0.0 0.0 0.00 0.00 0.00 58 1012.9
20260503171518 22 333 0.0 1.6 0.00 0.00 0.00 58 1013.0
20260503120103 -17 0.0 0.0 0.00 0.00 0.00 1013.4
20260503081545 -17 0.0 0.0 0.00 0.00 0.00 1013.9
20260503071527 -17 0.0 0.0 0.00 0.00 0.00 1014.0
20260503054502 -17 0.0 0.0 0.00 0.00 0.00 1013.7
20260503053056 -17 0.0 0.0 0.00 0.00 0.00 1013.8
20260503051553 -17 0.0 0.0 0.00 0.00 0.00 1013.7
20260503050047 -17 0.0 0.0 0.00 0.00 0.00 1013.6
20260503044544 -17 0.0 0.0 0.00 0.00 0.00 1013.5
20260503043042 -17 0.0 0.0 0.00 0.00 0.00 1013.4
20260503041534 -17 0.0 0.0 0.00 0.00 0.00 1013.2
20260503040039 -17 0.0 0.0 0.00 0.00 0.00 1013.0
20260503034538 -17 0.0 0.0 0.00 0.00 0.00 1012.6
20260503033021 -17 0.0 0.0 0.00 0.00 0.00 1012.4
20260503031520 -17 0.0 0.0 0.00 0.00 0.00 1012.2
20260503030014 -17 0.0 0.0 0.00 0.00 0.00 1012.0
20260503024508 -17 0.0 0.0 0.00 0.00 0.00 1011.9
20260503023007 21 74 0.0 0.0 0.00 0.00 0.00 59 1011.9
20260503021507 21 74 0.0 0.0 0.00 0.00 0.00 57 1011.9
20260503020007 22 74 0.0 0.0 0.00 0.00 0.00 56 1011.8
20260503014512 22 278 0.0 0.0 0.00 0.00 0.00 55 1011.8
20260503013006 23 58 0.0 0.0 0.00 0.00 0.00 52 1011.7
20260503011506 23 55 0.0 0.0 0.00 0.00 0.00 54 1011.9
20260503010005 23 55 0.0 0.0 0.00 0.00 0.00 53 1011.8
20260503004503 24 55 0.0 0.0 0.00 0.00 0.00 50 1011.9
20260503003002 25 5 0.0 0.0 0.00 0.00 0.00 48 1012.1
20260503001502 26 5 0.0 0.0 0.00 0.00 0.00 48 1012.1
20260503000001 26 5 0.0 0.0 0.00 0.00 0.00 49 1012.1
20260502234600 26 5 0.0 1.6 0.00 0.00 0.00 47 1012.2
20260502233103 26 19 0.0 1.6 0.00 0.00 0.00 49 1012.5
20260502231606 26 19 0.0 1.6 0.00 0.00 0.00 51 1012.6
20260502230055 26 41 0.0 1.6 0.00 0.00 0.00 49 1012.8
20260502224553 26 35 0.0 1.6 0.00 0.00 0.00 50 1012.9
20260502223049 25 36 0.0 1.6 0.00 0.00 0.00 49 1013.2
20260502221546 25 51 0.0 0.0 0.00 0.00 0.00 49 1013.4
20260502220145 25 355 0.0 0.0 0.00 0.00 0.00 50 1013.5
20260502214540 24 309 0.0 3.2 0.00 0.00 0.00 54 1013.7
20260502213037 24 47 0.0 1.6 0.00 0.00 0.00 55 1013.9
20260502211544 23 122 0.0 1.6 0.00 0.00 0.00 53 1013.9
20260502210032 23 360 0.0 3.2 0.00 0.00 0.00 55 1014.1
20260502204530 23 173 0.0 3.2 0.00 0.00 0.00 55 1014.3
20260502203027 22 332 0.0 3.2 0.00 0.00 0.00 55 1014.4
20260502201522 22 297 0.0 1.6 0.00 0.00 0.00 58 1014.5
20260502200018 21 269 0.0 1.6 0.00 0.00 0.00 61 1014.6
20260502194513 20 254 0.0 1.6 0.00 0.00 0.00 64 1014.9